Weather History for Waterloo, IA

Change the Weather History Date:

Wednesday, July 24, 2013

  Actual Average Record
Temperature  
Mean Temperature 65 °F 73 °F  
Max Temperature 78 °F 84 °F 107 °F (1901)
Min Temperature 52 °F 63 °F 49 °F (1904)
Degree Days  
Heating Degree Days 0 0  
Month to date heating degree days 0 0  
Since 1 June heating degree days 38 26  
Since 1 July heating degree days 0 0  
Cooling Degree Days 0 8  
Month to date cooling degree days 241 215  
Year to date cooling degree days 462 448  
Since 1 June cooling degree days 409 392  
Growing Degree Days 15 (Base 50)    
Moisture  
Dew Point 53 °F    
Average Humidity 70    
Maximum Humidity 100    
Minimum Humidity 40    
Precipitation  
Precipitation 0.00 in 0.15 in 2.23 in (2001)
Month to date precipitation 0.91 3.91  
Year to date precipitation 29.17 21.01  
Snow  
Snow 0.00 in 0.00 in - ()
Month to date snowfall 0.0 0.0  
Since 1 June snowfall 0.0 0.0  
Since 1 July snowfall 0.0 0.0  
Snow Depth 0.00 in    
Sea Level Pressure  
Sea Level Pressure 30.04 in    
Wind  
Wind Speed 1 mph (SW)    
Max Wind Speed 6 mph    
Max Gust Speed 29 mph    
Visibility 10 miles    
Events      
T = Trace of Precipitation, MM = Missing Value Source: NWS Daily Summary

Daily Weather History Graph

Daily Weather History Graph

Search for Another Location

Airport:

Trip Planner

Search our weather history database for the weather conditions in past years. The results will help you decide how hot, cold, wet, or windy it might be!

Date:

Astronomy

Jul. 24, 2013 Rise Set
Actual Time 5:53 AM CDT 8:37 PM CDT
Civil Twilight 5:21 AM CDT 9:10 PM CDT
Nautical Twilight 4:39 AM CDT 9:51 PM CDT
Astronomical Twilight 3:52 AM CDT 10:38 PM CDT
Moon 9:38 PM CDT (7/24) 8:18 AM CDT (7/24)
Length of Visible Light 15h 49m
Length of Day
14h 43m
Waning Gibbous, 94% of the Moon is Illuminated
Jul 24
Waning Gibbous
Jul 29
Last Quarter
Aug 6
New
Aug 14
First Quarter
Aug 20
Full

Hourly Weather History & Observations

Time (CDT) Temp. Dew Point Humidity Pressure Visibility Wind Dir Wind Speed Gust Speed Precip Events Conditions
12:54 AM 57.0 °F 53.1 °F 87% 30.01 in 10.0 mi Calm Calm - N/A   Clear
1:54 AM 57.0 °F 53.1 °F 87% 30.00 in 10.0 mi Calm Calm - N/A   Clear
2:54 AM 57.0 °F 53.1 °F 87% 30.01 in 10.0 mi Calm Calm - N/A   Clear
3:54 AM 55.0 °F 53.1 °F 93% 30.02 in 10.0 mi Calm Calm - N/A   Clear
4:54 AM 54.0 °F 52.0 °F 93% 30.02 in 10.0 mi Calm Calm - N/A   Clear
5:54 AM 52.0 °F 51.1 °F 97% 30.04 in 10.0 mi Calm Calm - N/A   Clear
6:54 AM 55.9 °F 54.0 °F 93% 30.05 in 10.0 mi Calm Calm - N/A   Clear
7:54 AM 60.1 °F 54.0 °F 80% 30.06 in 10.0 mi Calm Calm - N/A   Clear
8:54 AM 63.0 °F 55.9 °F 78% 30.08 in 10.0 mi Calm Calm - N/A   Clear
9:54 AM 68.0 °F 55.9 °F 65% 30.07 in 10.0 mi Calm Calm - N/A   Clear
10:54 AM 71.1 °F 52.0 °F 51% 30.07 in 10.0 mi Variable 4.6 mph - N/A   Clear
11:54 AM 73.0 °F 53.1 °F 49% 30.07 in 10.0 mi Calm Calm - N/A   Mostly Cloudy
12:54 PM 75.0 °F 51.1 °F 43% 30.06 in 10.0 mi North 3.5 mph - N/A   Clear
1:54 PM 75.0 °F 52.0 °F 44% 30.05 in 10.0 mi West 4.6 mph - N/A   Scattered Clouds
2:54 PM 73.9 °F 52.0 °F 46% 30.05 in 10.0 mi WNW 3.5 mph - N/A   Mostly Cloudy
3:54 PM 75.9 °F 52.0 °F 43% 30.04 in 10.0 mi WNW 3.5 mph 28.8 mph N/A   Mostly Cloudy
4:54 PM 75.9 °F 52.0 °F 43% 30.03 in 10.0 mi North - - N/A   Partly Cloudy
5:54 PM 75.9 °F 51.1 °F 42% 30.02 in 10.0 mi Calm Calm - N/A   Scattered Clouds
6:54 PM 77.0 °F 51.1 °F 40% 30.01 in 10.0 mi Calm Calm - N/A   Partly Cloudy
7:54 PM 73.0 °F 54.0 °F 51% 30.01 in 10.0 mi East 3.5 mph - N/A   Clear
8:54 PM 70.0 °F 55.9 °F 61% 30.01 in 10.0 mi South 5.8 mph - N/A   Partly Cloudy
9:54 PM 66.9 °F 57.0 °F 70% 30.03 in 10.0 mi South 5.8 mph - N/A   Mostly Cloudy
10:54 PM 64.9 °F 57.9 °F 78% 30.03 in 10.0 mi South 4.6 mph - N/A   Partly Cloudy
11:54 PM 64.9 °F 57.0 °F 75% 30.02 in 10.0 mi South 4.6 mph - N/A   Scattered Clouds